This is the latest recevied weather packets stored in our database for station/object PA3BWK. If no packets are shown the sender has not sent any weather packets the latest 10 day(s).
| Time | Temp. | Humidity | Pressure | Rain* | Wind** | Luminosity | Snow |
|---|---|---|---|---|---|---|---|
| 1787848413 | 26.67° C | 64% | 1009.2 hPa | 0 mm | - | 104 W/m² | - |
| 1787848351 | 26.67° C | 64% | 1009.1 hPa | 0 mm | - | 51 W/m² | - |
| 1787848293 | 26.67° C | 63% | 1009.1 hPa | 0 mm | - | 102 W/m² | - |
| 1787848231 | 26.67° C | 63% | 1009.2 hPa | 0 mm | - | 102 W/m² | - |
| 1787848171 | 26.67° C | 64% | 1009.1 hPa | 0 mm | - | 106 W/m² | - |
| 1787848112 | 26.67° C | 64% | 1009.1 hPa | 0 mm | - | 106 W/m² | - |
| 1787848052 | 26.67° C | 63% | 1009.2 hPa | 0 mm | - | 109 W/m² | - |
| 1787847992 | 26.11° C | 63% | 1009.1 hPa | 0 mm | - | 114 W/m² | - |
| 1787847934 | 26.11° C | 64% | 1009.2 hPa | 0 mm | - | 118 W/m² | - |
| 1787847871 | 26.67° C | 65% | 1009.2 hPa | 0 mm | - | 120 W/m² | - |
| 1787847811 | 26.67° C | 65% | 1009.2 hPa | 0 mm | - | 121 W/m² | - |
| 1787847751 | 26.67° C | 65% | 1009.2 hPa | 0 mm | - | 120 W/m² | - |
| 1787847693 | 26.67° C | 65% | 1009.2 hPa | 0 mm | - | 120 W/m² | - |
| 1787847632 | 26.67° C | 65% | 1009.1 hPa | 0 mm | - | 123 W/m² | - |
| 1787847572 | 26.67° C | 65% | 1009.1 hPa | 0 mm | - | 120 W/m² | - |
| 1787847511 | 26.67° C | 65% | 1009.1 hPa | 0 mm | - | 113 W/m² | - |
| 1787847451 | 26.67° C | 65% | 1009.2 hPa | 0 mm | - | 113 W/m² | - |
| 1787847391 | 26.67° C | 65% | 1009.2 hPa | 0 mm | - | 109 W/m² | - |
| 1787847331 | 26.67° C | 65% | 1009.2 hPa | 0 mm | - | 109 W/m² | - |
| 1787847273 | 26.67° C | 65% | 1009.2 hPa | 0 mm | - | 109 W/m² | - |
| 1787847213 | 26.67° C | 65% | 1009.2 hPa | 0 mm | - | 58 W/m² | - |
| 1787847151 | 26.67° C | 65% | 1009.3 hPa | 0 mm | - | 104 W/m² | - |
| 1787847091 | 26.67° C | 66% | 1009.3 hPa | 0 mm | - | 104 W/m² | - |
| 1787847036 | 26.67° C | 66% | 1009.2 hPa | 0 mm | - | 104 W/m² | - |
| 1787846971 | 26.67° C | 66% | 1009.4 hPa | 0 mm | - | 107 W/m² | - |
* Rain latest hour (hover to see other rain measurements)
** Current wind speed in m/s (hover to see current wind gust speed)